Time,TemperatureF,DewpointF,PressureIn,WindDirection,WindDirectionDegrees,WindSpeedMPH,WindSpeedGustMPH,Humidity,HourlyPrecipIn,Conditions,Clouds,dailyrainin,SoftwareType,DateUTC
2013-03-21 00:03:00,31.1,20.3,28.67,North,360,0.0,0.0,64,0.00,CLR,,0.00,WeatherDisplay:10.37,2013-03-21 05:03:00,
2013-03-21 00:08:00,31.1,20.0,28.67,West,270,0.0,0.0,63,0.00,CLR,,0.00,WeatherDisplay:10.37,2013-03-21 05:08:00,
2013-03-21 00:13:00,31.1,20.3,28.66,SW,225,0.0,0.0,64,0.00,CLR,,0.00,WeatherDisplay:10.37,2013-03-21 05:13:00,
2013-03-21 00:18:00,30.9,21.2,28.66,West,270,0.0,0.0,67,0.00,CLR,,0.00,WeatherDisplay:10.37,2013-03-21 05:18:00,
2013-03-21 00:23:00,30.9,19.8,28.66,NNW,338,0.0,0.0,63,0.00,CLR,,0.00,WeatherDisplay:10.37,2013-03-21 05:23:00,
2013-03-21 00:28:00,31.1,20.3,28.66,SSE,158,0.0,0.0,64,0.00,CLR,,0.00,WeatherDisplay:10.37,2013-03-21 05:28:00,
2013-03-21 00:33:00,31.1,20.7,28.66,SE,135,0.0,0.0,65,0.00,CLR,,0.00,WeatherDisplay:10.37,2013-03-21 05:33:00,
2013-03-21 00:38:00,30.7,19.6,28.65,SW,225,0.0,0.0,63,0.00,CLR,,0.00,WeatherDisplay:10.37,2013-03-21 05:38:00,
2013-03-21 00:44:00,30.4,19.7,28.65,WNW,292,0.0,0.0,64,0.00,CLR,,0.00,WeatherDisplay:10.37,2013-03-21 05:44:00,
2013-03-21 00:49:00,30.4,19.7,28.65,WSW,248,0.0,0.0,64,0.00,CLR,,0.00,WeatherDisplay:10.37,2013-03-21 05:49:00,
2013-03-21 00:54:00,30.6,19.9,28.65,SSE,158,0.0,0.0,64,0.00,CLR,,0.00,WeatherDisplay:10.37,2013-03-21 05:54:00,
2013-03-21 00:59:00,30.7,20.3,28.65,SW,225,0.0,0.0,65,0.00,CLR,,0.00,WeatherDisplay:10.37,2013-03-21 05:59:00,
2013-03-21 01:04:00,30.6,19.9,28.65,West,270,0.0,0.0,64,0.00,CLR,,0.00,WeatherDisplay:10.37,2013-03-21 06:04:00,
2013-03-21 01:09:00,30.4,19.7,28.65,South,180,0.0,0.0,64,0.00,CLR,,0.00,WeatherDisplay:10.37,2013-03-21 06:09:00,
2013-03-21 01:14:00,30.7,21.7,28.64,SW,225,0.0,0.0,69,0.00,CLR,,0.00,WeatherDisplay:10.37,2013-03-21 06:14:00,
2013-03-21 01:19:00,30.4,20.7,28.64,West,270,0.0,0.0,67,0.00,CLR,,0.00,WeatherDisplay:10.37,2013-03-21 06:19:00,
2013-03-21 01:24:00,30.4,19.7,28.64,SSW,202,0.0,0.0,64,0.00,CLR,,0.00,WeatherDisplay:10.37,2013-03-21 06:24:00,
2013-03-21 01:29:00,30.6,22.0,28.64,WSW,248,0.0,0.0,70,0.00,CLR,,0.00,WeatherDisplay:10.37,2013-03-21 06:29:00,
2013-03-21 01:34:00,30.4,21.1,28.64,NW,315,0.0,0.0,68,0.00,CLR,,0.00,WeatherDisplay:10.37,2013-03-21 06:34:00,
2013-03-21 01:39:00,30.4,21.1,28.63,SW,225,1.2,1.2,68,0.00,CLR,,0.00,WeatherDisplay:10.37,2013-03-21 06:39:00,
2013-03-21 01:44:00,30.4,20.7,28.63,ENE,68,2.3,0.0,67,0.00,CLR,,0.00,WeatherDisplay:10.37,2013-03-21 06:44:00,
2013-03-21 01:49:00,30.2,20.6,28.63,West,270,1.2,1.2,67,0.00,CLR,,0.00,WeatherDisplay:10.37,2013-03-21 06:49:00,
2013-03-21 01:54:00,30.7,20.3,28.63,SW,225,1.2,1.2,65,0.00,CLR,,0.00,WeatherDisplay:10.37,2013-03-21 06:54:00,
2013-03-21 01:59:00,30.7,20.3,28.63,WSW,248,2.3,2.3,65,0.00,CLR,,0.00,WeatherDisplay:10.37,2013-03-21 06:59:00,
2013-03-21 02:04:00,30.6,20.2,28.63,WNW,292,1.2,0.0,65,0.00,CLR,,0.00,WeatherDisplay:10.37,2013-03-21 07:04:00,
2013-03-21 02:09:00,30.7,20.7,28.63,SW,225,0.0,0.0,66,0.00,CLR,,0.00,WeatherDisplay:10.37,2013-03-21 07:09:00,
2013-03-21 02:14:00,30.4,20.4,28.62,SW,225,0.0,0.0,66,0.00,CLR,,0.00,WeatherDisplay:10.37,2013-03-21 07:14:00,
2013-03-21 02:19:00,30.4,19.3,28.62,ESE,112,0.0,0.0,63,0.00,CLR,,0.00,WeatherDisplay:10.37,2013-03-21 07:19:00,
2013-03-21 02:24:00,30.4,21.1,28.62,West,270,0.0,0.0,68,0.00,CLR,,0.00,WeatherDisplay:10.37,2013-03-21 07:24:00,
2013-03-21 02:29:00,30.4,21.4,28.62,WSW,248,2.3,0.0,69,0.00,CLR,,0.00,WeatherDisplay:10.37,2013-03-21 07:29:00,
2013-03-21 02:34:00,30.4,21.4,28.62,SSW,202,1.2,0.0,69,0.00,CLR,,0.00,WeatherDisplay:10.37,2013-03-21 07:34:00,
2013-03-21 02:39:00,30.4,21.8,28.62,WSW,248,0.0,0.0,70,0.00,CLR,,0.00,WeatherDisplay:10.37,2013-03-21 07:39:00,
2013-03-21 02:44:00,30.6,22.3,28.62,SW,225,0.0,0.0,71,0.00,CLR,,0.00,WeatherDisplay:10.37,2013-03-21 07:44:00,
2013-03-21 02:49:00,30.6,22.6,28.62,WNW,292,0.0,0.0,72,0.00,CLR,,0.00,WeatherDisplay:10.37,2013-03-21 07:49:00,
2013-03-21 02:54:00,30.4,21.8,28.62,East,90,0.0,0.0,70,0.00,CLR,,0.00,WeatherDisplay:10.37,2013-03-21 07:54:00,
2013-03-21 02:59:00,30.2,22.3,28.62,NNE,22,0.0,0.0,72,0.00,CLR,,0.00,WeatherDisplay:10.37,2013-03-21 07:59:00,
2013-03-21 03:04:00,30.2,20.2,28.62,NE,45,2.3,2.3,66,0.00,CLR,,0.00,WeatherDisplay:10.37,2013-03-21 08:04:00,
2013-03-21 03:09:00,30.2,20.9,28.62,NNE,22,0.0,0.0,68,0.00,CLR,,0.00,WeatherDisplay:10.37,2013-03-21 08:09:00,
2013-03-21 03:14:00,30.0,20.4,28.60,NNE,22,1.7,1.7,67,0.00,CLR,,0.00,WeatherDisplay:10.37,2013-03-21 08:14:00,
2013-03-21 03:20:00,30.0,20.0,28.60,NNW,338,1.2,1.2,66,0.00,CLR,,0.00,WeatherDisplay:10.37,2013-03-21 08:20:00,
2013-03-21 03:25:00,30.0,20.4,28.60,South,180,3.5,0.0,67,0.00,CLR,,0.00,WeatherDisplay:10.37,2013-03-21 08:25:00,
2013-03-21 03:30:00,30.0,20.4,28.60,West,270,2.3,2.3,67,0.00,CLR,,0.00,WeatherDisplay:10.37,2013-03-21 08:30:00,
2013-03-21 03:35:00,30.2,20.9,28.60,NNW,338,2.3,2.3,68,0.00,CLR,,0.00,WeatherDisplay:10.37,2013-03-21 08:35:00,
2013-03-21 03:40:00,30.2,20.9,28.60,NNE,22,1.2,1.2,68,0.00,CLR,,0.00,WeatherDisplay:10.37,2013-03-21 08:40:00,
2013-03-21 03:45:00,30.6,20.9,28.60,NNW,338,3.5,3.5,67,0.00,CLR,,0.00,WeatherDisplay:10.37,2013-03-21 08:45:00,
2013-03-21 03:50:00,30.6,20.9,28.60,WNW,292,2.3,2.3,67,0.00,CLR,,0.00,WeatherDisplay:10.37,2013-03-21 08:50:00,
2013-03-21 03:55:00,30.6,20.9,28.60,WNW,292,2.3,2.3,67,0.00,CLR,,0.00,WeatherDisplay:10.37,2013-03-21 08:55:00,
2013-03-21 04:00:00,30.6,20.9,28.60,WNW,292,2.3,2.3,67,0.00,CLR,,0.00,WeatherDisplay:10.37,2013-03-21 09:00:00,
2013-03-21 04:05:00,30.6,20.9,28.60,WNW,292,2.3,2.3,67,0.00,CLR,,0.00,WeatherDisplay:10.37,2013-03-21 09:05:00,
2013-03-21 04:10:00,30.6,20.9,28.60,WNW,292,2.3,2.3,67,0.00,CLR,,0.00,WeatherDisplay:10.37,2013-03-21 09:10:00,
2013-03-21 04:15:00,30.6,20.9,28.58,North,360,2.7,2.7,67,0.00,CLR,,0.00,WeatherDisplay:10.37,2013-03-21 09:15:00,
2013-03-21 04:20:00,30.6,20.9,28.58,North,360,2.7,2.7,67,0.00,CLR,,0.00,WeatherDisplay:10.37,2013-03-21 09:20:00,
2013-03-21 04:25:00,30.6,20.9,28.58,North,360,2.7,2.7,67,0.00,CLR,,0.00,WeatherDisplay:10.37,2013-03-21 09:25:00,
2013-03-21 04:30:00,30.6,20.9,28.58,North,360,2.7,2.7,67,0.00,CLR,,0.00,WeatherDisplay:10.37,2013-03-21 09:30:00,
2013-03-21 04:35:00,30.6,20.9,28.58,North,360,2.7,2.7,67,0.00,CLR,,0.00,WeatherDisplay:10.37,2013-03-21 09:35:00,
2013-03-21 04:40:00,30.6,20.9,28.58,North,360,2.7,2.7,67,0.00,CLR,,0.00,WeatherDisplay:10.37,2013-03-21 09:40:00,
2013-03-21 04:45:00,30.6,20.9,28.58,North,360,2.7,2.7,67,0.00,CLR,,0.00,WeatherDisplay:10.37,2013-03-21 09:45:00,
2013-03-21 04:50:00,30.6,20.9,28.58,North,360,2.7,2.7,67,0.00,CLR,,0.00,WeatherDisplay:10.37,2013-03-21 09:50:00,
2013-03-21 04:55:00,30.6,20.9,28.58,North,360,2.7,2.7,67,0.00,CLR,,0.00,WeatherDisplay:10.37,2013-03-21 09:55:00,
2013-03-21 05:00:00,30.6,20.9,28.58,North,360,2.7,2.7,67,0.00,CLR,,0.00,WeatherDisplay:10.37,2013-03-21 10:00:00,
2013-03-21 05:05:00,30.6,20.9,28.58,North,360,2.7,2.7,67,0.00,CLR,,0.00,WeatherDisplay:10.37,2013-03-21 10:05:00,
2013-03-21 05:10:00,30.6,20.9,28.58,North,360,2.7,2.7,67,0.00,CLR,,0.00,WeatherDisplay:10.37,2013-03-21 10:10:00,
2013-03-21 05:15:00,30.6,20.9,28.58,North,360,2.7,2.7,67,0.00,CLR,,0.00,WeatherDisplay:10.37,2013-03-21 10:15:00,
2013-03-21 05:20:00,30.6,20.9,28.58,North,360,2.7,2.7,67,0.00,CLR,,0.00,WeatherDisplay:10.37,2013-03-21 10:20:00,
2013-03-21 05:25:00,30.6,20.9,28.58,North,360,2.7,2.7,67,0.00,CLR,,0.00,WeatherDisplay:10.37,2013-03-21 10:25:00,
2013-03-21 05:30:00,30.6,20.9,28.58,North,360,2.7,2.7,67,0.00,CLR,,0.00,WeatherDisplay:10.37,2013-03-21 10:30:00,
2013-03-21 05:35:00,30.6,20.9,28.58,North,360,2.7,2.7,67,0.00,CLR,,0.00,WeatherDisplay:10.37,2013-03-21 10:35:00,
2013-03-21 05:40:00,30.6,20.9,28.58,North,360,2.7,2.7,67,0.00,CLR,,0.00,WeatherDisplay:10.37,2013-03-21 10:40:00,
2013-03-21 05:45:00,30.6,20.9,28.58,North,360,2.7,2.7,67,0.00,CLR,,0.00,WeatherDisplay:10.37,2013-03-21 10:45:00,
2013-03-21 05:50:00,30.6,20.9,28.58,North,360,2.7,2.7,67,0.00,CLR,,0.00,WeatherDisplay:10.37,2013-03-21 10:50:00,
2013-03-21 05:55:00,30.6,20.9,28.58,North,360,2.7,2.7,67,0.00,CLR,,0.00,WeatherDisplay:10.37,2013-03-21 10:55:00,
2013-03-21 06:00:00,30.6,20.9,28.58,North,360,2.7,2.7,67,0.00,CLR,,0.00,WeatherDisplay:10.37,2013-03-21 11:00:00,
2013-03-21 06:05:00,30.6,20.9,28.58,North,360,2.7,2.7,67,0.00,CLR,,0.00,WeatherDisplay:10.37,2013-03-21 11:05:00,
2013-03-21 06:10:00,30.6,20.9,28.58,North,360,2.7,2.7,67,0.00,CLR,,0.00,WeatherDisplay:10.37,2013-03-21 11:10:00,
2013-03-21 06:15:00,30.6,20.9,28.58,North,360,2.7,2.7,67,0.00,CLR,,0.00,WeatherDisplay:10.37,2013-03-21 11:15:00,
2013-03-21 06:20:00,30.6,20.9,28.58,North,360,2.7,2.7,67,0.00,CLR,,0.00,WeatherDisplay:10.37,2013-03-21 11:20:00,
2013-03-21 06:25:00,30.6,20.9,28.58,North,360,2.0,3.0,67,0.00,CLR,,0.00,WeatherDisplay:10.37,2013-03-21 11:25:00,
2013-03-21 06:30:00,30.6,20.9,28.58,North,360,2.0,3.0,67,0.00,CLR,,0.00,WeatherDisplay:10.37,2013-03-21 11:30:00,
2013-03-21 06:35:00,30.6,20.9,28.58,North,360,2.0,3.0,67,0.00,CLR,,0.00,WeatherDisplay:10.37,2013-03-21 11:35:00,
2013-03-21 06:40:00,30.6,20.9,28.58,North,360,2.0,3.0,67,0.00,CLR,,0.00,WeatherDisplay:10.37,2013-03-21 11:40:00,
2013-03-21 06:45:00,30.6,20.9,28.58,North,360,2.0,3.0,67,0.00,CLR,,0.00,WeatherDisplay:10.37,2013-03-21 11:45:00,
2013-03-21 06:50:00,30.6,20.9,28.58,North,360,2.0,3.0,67,0.00,CLR,,0.00,WeatherDisplay:10.37,2013-03-21 11:50:00,
2013-03-21 06:55:00,30.6,20.9,28.58,North,360,2.0,3.0,67,0.00,CLR,,0.00,WeatherDisplay:10.37,2013-03-21 11:55:00,
2013-03-21 07:00:00,30.6,20.9,28.58,North,360,2.0,3.0,67,0.00,CLR,,0.00,WeatherDisplay:10.37,2013-03-21 12:00:00,
2013-03-21 07:05:00,30.6,20.9,28.58,North,360,2.7,2.7,67,0.00,CLR,,0.00,WeatherDisplay:10.37,2013-03-21 12:05:00,
2013-03-21 07:10:00,30.6,20.9,28.58,North,360,2.7,2.7,67,0.00,CLR,,0.00,WeatherDisplay:10.37,2013-03-21 12:10:00,
2013-03-21 07:15:00,30.6,20.9,28.58,North,360,2.0,3.0,67,0.00,CLR,,0.00,WeatherDisplay:10.37,2013-03-21 12:15:00,
2013-03-21 07:20:00,30.6,20.9,28.58,North,360,2.0,3.0,67,0.00,CLR,,0.00,WeatherDisplay:10.37,2013-03-21 12:20:00,
2013-03-21 07:25:00,30.6,20.9,28.58,North,360,2.0,3.0,67,0.00,CLR,,0.00,WeatherDisplay:10.37,2013-03-21 12:25:00,
2013-03-21 07:30:00,30.6,20.9,28.58,North,360,2.0,3.0,67,0.00,CLR,,0.00,WeatherDisplay:10.37,2013-03-21 12:30:00,
2013-03-21 07:35:00,30.6,20.9,28.58,North,360,2.0,3.0,67,0.00,CLR,,0.00,WeatherDisplay:10.37,2013-03-21 12:35:00,
2013-03-21 07:40:00,30.6,20.9,28.58,North,360,2.0,3.0,67,0.00,CLR,,0.00,WeatherDisplay:10.37,2013-03-21 12:40:00,
2013-03-21 07:45:00,30.6,20.9,28.58,North,360,2.0,3.0,67,0.00,CLR,,0.00,WeatherDisplay:10.37,2013-03-21 12:45:00,
2013-03-21 07:50:00,30.6,20.9,28.58,North,360,2.0,3.0,67,0.00,CLR,,0.00,WeatherDisplay:10.37,2013-03-21 12:50:00,
2013-03-21 07:55:00,30.6,20.9,28.58,North,360,2.0,3.0,67,0.00,CLR,,0.00,WeatherDisplay:10.37,2013-03-21 12:55:00,
2013-03-21 08:00:00,30.6,20.9,28.58,North,360,2.0,3.0,67,0.00,CLR,,0.00,WeatherDisplay:10.37,2013-03-21 13:00:00,
2013-03-21 08:05:00,30.6,20.9,28.58,North,360,2.7,2.7,67,0.00,CLR,,0.00,WeatherDisplay:10.37,2013-03-21 13:05:00,
2013-03-21 08:10:00,30.6,20.9,28.58,North,360,2.7,2.7,67,0.00,CLR,,0.00,WeatherDisplay:10.37,2013-03-21 13:10:00,
2013-03-21 08:15:00,30.6,20.9,28.58,North,360,2.7,2.7,67,0.00,CLR,,0.00,WeatherDisplay:10.37,2013-03-21 13:15:00,
2013-03-21 08:20:00,30.6,20.9,28.58,North,360,2.7,2.7,67,0.00,CLR,,0.00,WeatherDisplay:10.37,2013-03-21 13:20:00,
2013-03-21 08:25:00,30.6,20.9,28.58,North,360,2.7,2.7,67,0.00,CLR,,0.00,WeatherDisplay:10.37,2013-03-21 13:25:00,
2013-03-21 08:30:00,30.6,20.9,28.58,North,360,2.7,2.7,67,0.00,CLR,,0.00,WeatherDisplay:10.37,2013-03-21 13:30:00,
2013-03-21 08:35:00,30.6,20.9,28.58,North,360,2.7,2.7,67,0.00,CLR,,0.00,WeatherDisplay:10.37,2013-03-21 13:35:00,
2013-03-21 08:40:00,30.6,20.9,28.58,North,360,2.7,2.7,67,0.00,CLR,,0.00,WeatherDisplay:10.37,2013-03-21 13:40:00,
2013-03-21 08:45:00,30.6,20.9,28.58,North,360,2.7,2.7,67,0.00,CLR,,0.00,WeatherDisplay:10.37,2013-03-21 13:45:00,
2013-03-21 08:50:00,30.6,20.9,28.58,North,360,2.7,2.7,67,0.00,CLR,,0.00,WeatherDisplay:10.37,2013-03-21 13:50:00,
2013-03-21 08:55:00,30.6,20.9,28.58,North,360,2.7,2.7,67,0.00,CLR,,0.00,WeatherDisplay:10.37,2013-03-21 13:55:00,
2013-03-21 09:00:00,30.6,20.9,28.58,North,360,2.7,2.7,67,0.00,CLR,,0.00,WeatherDisplay:10.37,2013-03-21 14:00:00,
2013-03-21 09:05:00,30.6,20.9,28.58,North,360,2.7,2.7,67,0.00,CLR,,0.00,WeatherDisplay:10.37,2013-03-21 14:05:00,
2013-03-21 09:10:00,30.6,20.9,28.58,North,360,2.7,2.7,67,0.00,CLR,,0.00,WeatherDisplay:10.37,2013-03-21 14:10:00,
2013-03-21 09:15:00,30.6,20.9,28.58,North,360,2.7,2.7,67,0.00,CLR,,0.00,WeatherDisplay:10.37,2013-03-21 14:15:00,
2013-03-21 09:20:00,30.6,20.9,28.58,North,360,2.7,2.7,67,0.00,CLR,,0.00,WeatherDisplay:10.37,2013-03-21 14:20:00,
2013-03-21 09:25:00,30.6,20.9,28.58,North,360,2.7,2.7,67,0.00,CLR,,0.00,WeatherDisplay:10.37,2013-03-21 14:25:00,
2013-03-21 09:30:00,30.6,20.9,28.58,North,360,2.7,2.7,67,0.00,CLR,,0.00,WeatherDisplay:10.37,2013-03-21 14:30:00,
2013-03-21 09:35:00,30.6,20.9,28.58,North,360,2.7,2.7,67,0.00,CLR,,0.00,WeatherDisplay:10.37,2013-03-21 14:35:00,
2013-03-21 09:40:00,30.6,20.9,28.58,North,360,2.7,2.7,67,0.00,CLR,,0.00,WeatherDisplay:10.37,2013-03-21 14:40:00,
2013-03-21 09:45:00,30.6,20.9,28.58,North,360,2.7,2.7,67,0.00,CLR,,0.00,WeatherDisplay:10.37,2013-03-21 14:45:00,
2013-03-21 09:50:00,30.6,20.9,28.58,North,360,2.7,2.7,67,0.00,CLR,,0.00,WeatherDisplay:10.37,2013-03-21 14:50:00,
2013-03-21 09:55:00,30.6,20.9,28.58,North,360,2.7,2.7,67,0.00,CLR,,0.00,WeatherDisplay:10.37,2013-03-21 14:55:00,
2013-03-21 10:00:00,30.6,20.9,28.58,North,360,2.7,2.7,67,0.00,CLR,,0.00,WeatherDisplay:10.37,2013-03-21 15:00:00,
2013-03-21 10:05:00,30.6,20.9,28.58,North,360,2.7,2.7,67,0.00,CLR,,0.00,WeatherDisplay:10.37,2013-03-21 15:05:00,
2013-03-21 10:10:00,30.6,20.9,28.58,North,360,2.7,2.7,67,0.00,CLR,,0.00,WeatherDisplay:10.37,2013-03-21 15:10:00,
2013-03-21 10:15:00,30.6,20.9,28.58,North,360,2.7,2.7,67,0.00,CLR,,0.00,WeatherDisplay:10.37,2013-03-21 15:15:00,
2013-03-21 10:20:00,30.6,20.9,28.58,North,360,2.7,2.7,67,0.00,CLR,,0.00,WeatherDisplay:10.37,2013-03-21 15:20:00,
2013-03-21 10:25:00,30.6,20.9,28.58,North,360,2.7,2.7,67,0.00,CLR,,0.00,WeatherDisplay:10.37,2013-03-21 15:25:00,
2013-03-21 10:30:00,30.6,20.9,28.58,North,360,2.7,2.7,67,0.00,CLR,,0.00,WeatherDisplay:10.37,2013-03-21 15:30:00,
2013-03-21 10:35:00,30.6,20.9,28.58,North,360,2.7,2.7,67,0.00,CLR,,0.00,WeatherDisplay:10.37,2013-03-21 15:35:00,
2013-03-21 10:40:00,30.6,20.9,28.58,North,360,2.7,2.7,67,0.00,CLR,,0.00,WeatherDisplay:10.37,2013-03-21 15:40:00,
2013-03-21 10:45:00,30.6,20.9,28.58,North,360,2.7,2.7,67,0.00,CLR,,0.00,WeatherDisplay:10.37,2013-03-21 15:45:00,
2013-03-21 10:50:00,30.6,20.9,28.58,North,360,2.7,2.7,67,0.00,CLR,,0.00,WeatherDisplay:10.37,2013-03-21 15:50:00,
2013-03-21 10:55:00,30.6,20.9,28.58,North,360,2.7,2.7,67,0.00,CLR,,0.00,WeatherDisplay:10.37,2013-03-21 15:55:00,
2013-03-21 11:00:00,30.6,20.9,28.58,North,360,2.7,2.7,67,0.00,CLR,,0.00,WeatherDisplay:10.37,2013-03-21 16:00:00,
2013-03-21 11:05:00,30.6,20.9,28.58,North,360,2.7,2.7,67,0.00,CLR,,0.00,WeatherDisplay:10.37,2013-03-21 16:05:00,
2013-03-21 11:10:00,30.6,20.9,28.58,North,360,2.7,2.7,67,0.00,CLR,,0.00,WeatherDisplay:10.37,2013-03-21 16:10:00,
2013-03-21 11:15:00,30.6,20.9,28.58,North,360,2.7,2.7,67,0.00,CLR,,0.00,WeatherDisplay:10.37,2013-03-21 16:15:00,
2013-03-21 11:20:00,30.6,20.9,28.58,North,360,2.7,2.7,67,0.00,CLR,,0.00,WeatherDisplay:10.37,2013-03-21 16:20:00,
2013-03-21 11:25:00,30.6,20.9,28.58,North,360,2.7,2.7,67,0.00,CLR,,0.00,WeatherDisplay:10.37,2013-03-21 16:25:00,
2013-03-21 11:30:00,30.6,20.9,28.58,North,360,2.7,2.7,67,0.00,CLR,,0.00,WeatherDisplay:10.37,2013-03-21 16:30:00,
2013-03-21 11:35:00,30.6,20.9,28.58,North,360,2.7,2.7,67,0.00,CLR,,0.00,WeatherDisplay:10.37,2013-03-21 16:35:00,
2013-03-21 11:40:00,30.6,20.9,28.58,North,360,2.7,2.7,67,0.00,CLR,,0.00,WeatherDisplay:10.37,2013-03-21 16:40:00,
2013-03-21 11:45:00,30.6,20.9,28.58,North,360,2.7,2.7,67,0.00,CLR,,0.00,WeatherDisplay:10.37,2013-03-21 16:45:00,
2013-03-21 11:50:00,30.6,20.9,28.58,North,360,2.7,2.7,67,0.00,CLR,,0.00,WeatherDisplay:10.37,2013-03-21 16:50:00,
2013-03-21 11:56:00,30.6,20.9,28.58,North,360,2.7,2.7,67,0.00,CLR,,0.00,WeatherDisplay:10.37,2013-03-21 16:56:00,
2013-03-21 12:01:00,30.6,20.9,28.58,North,360,2.7,2.7,67,0.00,CLR,,0.00,WeatherDisplay:10.37,2013-03-21 17:01:00,
2013-03-21 12:07:00,30.6,20.9,28.58,North,360,2.7,2.7,67,0.00,CLR,,0.00,WeatherDisplay:10.37,2013-03-21 17:07:00,
2013-03-21 12:12:00,30.6,20.9,28.58,North,360,2.7,2.7,67,0.00,CLR,,0.00,WeatherDisplay:10.37,2013-03-21 17:12:00,
2013-03-21 12:17:00,30.6,20.9,28.58,North,360,2.7,2.7,67,0.00,CLR,,0.00,WeatherDisplay:10.37,2013-03-21 17:17:00,
2013-03-21 12:22:00,30.6,20.9,28.58,North,360,2.7,2.7,67,0.00,CLR,,0.00,WeatherDisplay:10.37,2013-03-21 17:22:00,
2013-03-21 12:27:00,30.6,20.9,28.58,North,360,2.7,2.7,67,0.00,CLR,,0.00,WeatherDisplay:10.37,2013-03-21 17:27:00,
2013-03-21 12:32:00,30.6,20.9,28.58,North,360,2.7,2.7,67,0.00,CLR,,0.00,WeatherDisplay:10.37,2013-03-21 17:32:00,
2013-03-21 12:38:00,30.6,20.9,28.58,North,360,2.7,2.7,67,0.00,CLR,,0.00,WeatherDisplay:10.37,2013-03-21 17:38:00,
2013-03-21 12:43:00,30.6,20.9,28.58,North,360,2.7,2.7,67,0.00,CLR,,0.00,WeatherDisplay:10.37,2013-03-21 17:43:00,
2013-03-21 12:48:00,30.6,20.9,28.58,North,360,2.7,2.7,67,0.00,CLR,,0.00,WeatherDisplay:10.37,2013-03-21 17:48:00,
2013-03-21 12:53:00,30.6,20.9,28.58,North,360,2.7,2.7,67,0.00,CLR,,0.00,WeatherDisplay:10.37,2013-03-21 17:53:00,
2013-03-21 12:58:00,30.6,20.9,28.58,North,360,2.7,2.7,67,0.00,CLR,,0.00,WeatherDisplay:10.37,2013-03-21 17:58:00,
2013-03-21 13:03:00,30.6,20.9,28.58,North,360,2.7,2.7,67,0.00,CLR,,0.00,WeatherDisplay:10.37,2013-03-21 18:03:00,
2013-03-21 13:08:00,30.6,20.9,28.58,North,360,2.7,2.7,67,0.00,CLR,,0.00,WeatherDisplay:10.37,2013-03-21 18:08:00,
2013-03-21 13:13:00,30.6,20.9,28.58,North,360,2.7,2.7,67,0.00,CLR,,0.00,WeatherDisplay:10.37,2013-03-21 18:13:00,
2013-03-21 13:18:00,30.6,20.9,28.58,North,360,2.7,2.7,67,0.00,CLR,,0.00,WeatherDisplay:10.37,2013-03-21 18:18:00,
2013-03-21 13:23:00,30.6,20.9,28.58,North,360,2.7,2.7,67,0.00,CLR,,0.00,WeatherDisplay:10.37,2013-03-21 18:23:00,
2013-03-21 13:28:00,30.6,20.9,28.58,North,360,2.7,2.7,67,0.00,CLR,,0.00,WeatherDisplay:10.37,2013-03-21 18:28:00,
2013-03-21 13:33:00,30.6,20.9,28.58,North,360,2.7,2.7,67,0.00,CLR,,0.00,WeatherDisplay:10.37,2013-03-21 18:33:00,
2013-03-21 13:38:00,30.6,20.9,28.58,North,360,2.7,2.7,67,0.00,CLR,,0.00,WeatherDisplay:10.37,2013-03-21 18:38:00,
2013-03-21 13:43:00,30.6,20.9,28.58,North,360,2.7,2.7,67,0.00,CLR,,0.00,WeatherDisplay:10.37,2013-03-21 18:43:00,
2013-03-21 13:48:00,30.6,20.9,28.58,North,360,2.7,2.7,67,0.00,CLR,,0.00,WeatherDisplay:10.37,2013-03-21 18:48:00,
2013-03-21 13:53:00,30.6,20.9,28.58,North,360,2.7,2.7,67,0.00,CLR,,0.00,WeatherDisplay:10.37,2013-03-21 18:53:00,
2013-03-21 13:58:00,30.6,20.9,28.58,North,360,2.7,2.7,67,0.00,CLR,,0.00,WeatherDisplay:10.37,2013-03-21 18:58:00,
2013-03-21 14:03:00,30.6,20.9,28.58,North,360,2.7,2.7,67,0.00,CLR,,0.00,WeatherDisplay:10.37,2013-03-21 19:03:00,
2013-03-21 14:08:00,30.6,20.9,28.58,North,360,2.7,2.7,67,0.00,CLR,,0.00,WeatherDisplay:10.37,2013-03-21 19:08:00,
2013-03-21 14:13:00,30.6,20.9,28.58,North,360,2.7,2.7,67,0.00,CLR,,0.00,WeatherDisplay:10.37,2013-03-21 19:13:00,
2013-03-21 14:18:00,30.6,20.9,28.58,North,360,2.7,2.7,67,0.00,CLR,,0.00,WeatherDisplay:10.37,2013-03-21 19:18:00,
2013-03-21 14:23:00,30.6,20.9,28.58,North,360,2.7,2.7,67,0.00,CLR,,0.00,WeatherDisplay:10.37,2013-03-21 19:23:00,
2013-03-21 14:28:00,30.6,20.9,28.58,North,360,2.7,2.7,67,0.00,CLR,,0.00,WeatherDisplay:10.37,2013-03-21 19:28:00,
2013-03-21 14:33:00,30.6,20.9,28.58,North,360,2.7,2.7,67,0.00,CLR,,0.00,WeatherDisplay:10.37,2013-03-21 19:33:00,
2013-03-21 14:38:00,30.6,20.9,28.58,North,360,2.7,2.7,67,0.00,CLR,,0.00,WeatherDisplay:10.37,2013-03-21 19:38:00,
2013-03-21 14:43:00,30.6,20.9,28.58,North,360,2.7,2.7,67,0.00,CLR,,0.00,WeatherDisplay:10.37,2013-03-21 19:43:00,
2013-03-21 14:48:00,30.6,20.9,28.58,North,360,2.7,2.7,67,0.00,CLR,,0.00,WeatherDisplay:10.37,2013-03-21 19:48:00,
2013-03-21 14:53:00,30.6,20.9,28.58,North,360,2.7,2.7,67,0.00,CLR,,0.00,WeatherDisplay:10.37,2013-03-21 19:53:00,
2013-03-21 14:58:00,30.6,20.9,28.58,North,360,2.7,2.7,67,0.00,CLR,,0.00,WeatherDisplay:10.37,2013-03-21 19:58:00,
2013-03-21 15:03:00,30.6,20.9,28.58,North,360,2.7,2.7,67,0.00,CLR,,0.00,WeatherDisplay:10.37,2013-03-21 20:03:00,
2013-03-21 15:08:00,30.6,20.9,28.58,North,360,2.7,2.7,67,0.00,CLR,,0.00,WeatherDisplay:10.37,2013-03-21 20:08:00,
2013-03-21 15:13:00,30.6,20.9,28.58,North,360,2.7,2.7,67,0.00,CLR,,0.00,WeatherDisplay:10.37,2013-03-21 20:13:00,
2013-03-21 15:18:00,30.6,20.9,28.58,North,360,2.7,2.7,67,0.00,CLR,,0.00,WeatherDisplay:10.37,2013-03-21 20:18:00,
2013-03-21 15:23:00,30.6,20.9,28.58,North,360,2.7,2.7,67,0.00,CLR,,0.00,WeatherDisplay:10.37,2013-03-21 20:23:00,
2013-03-21 15:28:00,30.6,20.9,28.58,North,360,2.7,2.7,67,0.00,CLR,,0.00,WeatherDisplay:10.37,2013-03-21 20:28:00,
2013-03-21 15:33:00,30.6,20.9,28.58,North,360,2.7,2.7,67,0.00,CLR,,0.00,WeatherDisplay:10.37,2013-03-21 20:33:00,
2013-03-21 15:38:00,30.6,20.9,28.58,North,360,2.7,2.7,67,0.00,CLR,,0.00,WeatherDisplay:10.37,2013-03-21 20:38:00,
2013-03-21 15:43:00,30.6,20.9,28.58,North,360,2.7,2.7,67,0.00,CLR,,0.00,WeatherDisplay:10.37,2013-03-21 20:43:00,
2013-03-21 15:48:00,30.6,20.9,28.58,North,360,2.7,2.7,67,0.00,CLR,,0.00,WeatherDisplay:10.37,2013-03-21 20:48:00,
2013-03-21 15:53:00,30.6,20.9,28.58,North,360,2.7,2.7,67,0.00,CLR,,0.00,WeatherDisplay:10.37,2013-03-21 20:53:00,
2013-03-21 15:59:00,30.6,20.9,28.58,North,360,2.7,2.7,67,0.00,CLR,,0.00,WeatherDisplay:10.37,2013-03-21 20:59:00,
2013-03-21 16:04:00,30.6,20.9,28.58,North,360,2.7,2.7,67,0.00,CLR,,0.00,WeatherDisplay:10.37,2013-03-21 21:04:00,
2013-03-21 16:09:00,30.6,20.9,28.58,North,360,2.7,2.7,67,0.00,CLR,,0.00,WeatherDisplay:10.37,2013-03-21 21:09:00,
2013-03-21 16:14:00,30.6,20.9,28.58,North,360,2.7,2.7,67,0.00,CLR,,0.00,WeatherDisplay:10.37,2013-03-21 21:14:00,
2013-03-21 16:19:00,30.6,20.9,28.58,North,360,2.7,2.7,67,0.00,CLR,,0.00,WeatherDisplay:10.37,2013-03-21 21:19:00,
2013-03-21 16:24:00,30.6,20.9,28.58,North,360,2.7,2.7,67,0.00,CLR,,0.00,WeatherDisplay:10.37,2013-03-21 21:24:00,
2013-03-21 16:29:00,30.6,20.9,28.58,North,360,2.7,2.7,67,0.00,CLR,,0.00,WeatherDisplay:10.37,2013-03-21 21:29:00,
2013-03-21 16:34:00,30.6,20.9,28.58,North,360,2.7,2.7,67,0.00,CLR,,0.00,WeatherDisplay:10.37,2013-03-21 21:34:00,
2013-03-21 16:39:00,30.6,20.9,28.58,North,360,2.7,2.7,67,0.00,CLR,,0.00,WeatherDisplay:10.37,2013-03-21 21:39:00,
2013-03-21 16:44:00,30.6,20.9,28.58,North,360,2.7,2.7,67,0.00,CLR,,0.00,WeatherDisplay:10.37,2013-03-21 21:44:00,
2013-03-21 16:49:00,30.6,20.9,28.58,North,360,2.7,2.7,67,0.00,CLR,,0.00,WeatherDisplay:10.37,2013-03-21 21:49:00,
2013-03-21 16:54:00,30.6,20.9,28.58,North,360,2.7,2.7,67,0.00,CLR,,0.00,WeatherDisplay:10.37,2013-03-21 21:54:00,
2013-03-21 16:59:00,30.6,20.9,28.58,North,360,2.7,2.7,67,0.00,CLR,,0.00,WeatherDisplay:10.37,2013-03-21 21:59:00,
2013-03-21 17:04:00,30.6,20.9,28.58,North,360,2.7,2.7,67,0.00,CLR,,0.00,WeatherDisplay:10.37,2013-03-21 22:04:00,
2013-03-21 17:09:00,30.6,20.9,28.58,North,360,2.7,2.7,67,0.00,CLR,,0.00,WeatherDisplay:10.37,2013-03-21 22:09:00,
2013-03-21 17:14:00,30.6,20.9,28.58,North,360,2.7,2.7,67,0.00,CLR,,0.00,WeatherDisplay:10.37,2013-03-21 22:14:00,
2013-03-21 17:19:00,30.6,20.9,28.58,North,360,2.7,2.7,67,0.00,CLR,,0.00,WeatherDisplay:10.37,2013-03-21 22:19:00,
2013-03-21 17:24:00,30.6,20.9,28.58,North,360,2.7,2.7,67,0.00,CLR,,0.00,WeatherDisplay:10.37,2013-03-21 22:24:00,
2013-03-21 17:29:00,30.6,20.9,28.58,North,360,2.7,2.7,67,0.00,CLR,,0.00,WeatherDisplay:10.37,2013-03-21 22:29:00,
2013-03-21 17:34:00,30.6,20.9,28.58,North,360,2.7,2.7,67,0.00,CLR,,0.00,WeatherDisplay:10.37,2013-03-21 22:34:00,
2013-03-21 17:39:00,30.6,20.9,28.58,North,360,2.7,2.7,67,0.00,CLR,,0.00,WeatherDisplay:10.37,2013-03-21 22:39:00,
2013-03-21 17:44:00,30.6,20.9,28.58,North,360,2.7,2.7,67,0.00,CLR,,0.00,WeatherDisplay:10.37,2013-03-21 22:44:00,
2013-03-21 17:49:00,30.6,20.9,28.58,North,360,2.7,2.7,67,0.00,CLR,,0.00,WeatherDisplay:10.37,2013-03-21 22:49:00,
2013-03-21 17:55:00,30.6,20.9,28.58,North,360,2.7,2.7,67,0.00,CLR,,0.00,WeatherDisplay:10.37,2013-03-21 22:55:00,
2013-03-21 18:00:00,30.6,20.9,28.58,North,360,2.7,2.7,67,0.00,CLR,,0.00,WeatherDisplay:10.37,2013-03-21 23:00:00,
2013-03-21 18:05:00,30.6,20.9,28.58,North,360,2.7,2.7,67,0.00,CLR,,0.00,WeatherDisplay:10.37,2013-03-21 23:05:00,
2013-03-21 18:10:00,30.6,20.9,28.58,North,360,2.7,2.7,67,0.00,CLR,,0.00,WeatherDisplay:10.37,2013-03-21 23:10:00,
2013-03-21 18:15:00,30.6,20.9,28.58,North,360,2.7,2.7,67,0.00,CLR,,0.00,WeatherDisplay:10.37,2013-03-21 23:15:00,
2013-03-21 18:20:00,30.6,20.9,28.58,North,360,2.7,2.7,67,0.00,CLR,,0.00,WeatherDisplay:10.37,2013-03-21 23:20:00,
2013-03-21 18:25:00,30.6,20.9,28.58,North,360,2.7,2.7,67,0.00,CLR,,0.00,WeatherDisplay:10.37,2013-03-21 23:25:00,
2013-03-21 18:30:00,30.6,20.9,28.58,North,360,2.7,2.7,67,0.00,CLR,,0.00,WeatherDisplay:10.37,2013-03-21 23:30:00,
2013-03-21 18:35:00,30.6,20.9,28.58,North,360,2.7,2.7,67,0.00,CLR,,0.00,WeatherDisplay:10.37,2013-03-21 23:35:00,
2013-03-21 18:40:00,30.6,20.9,28.58,North,360,2.7,2.7,67,0.00,CLR,,0.00,WeatherDisplay:10.37,2013-03-21 23:40:00,
2013-03-21 18:45:00,30.6,20.9,28.58,North,360,2.7,2.7,67,0.00,CLR,,0.00,WeatherDisplay:10.37,2013-03-21 23:45:00,
2013-03-21 18:50:00,30.6,20.9,28.58,North,360,2.7,2.7,67,0.00,CLR,,0.00,WeatherDisplay:10.37,2013-03-21 23:50:00,
2013-03-21 18:55:00,30.6,20.9,28.58,North,360,2.0,3.0,67,0.00,CLR,,0.00,WeatherDisplay:10.37,2013-03-21 23:55:00,
2013-03-21 19:00:00,30.6,20.9,28.58,North,360,2.0,3.0,67,0.00,CLR,,0.00,WeatherDisplay:10.37,2013-03-22 00:00:00,
2013-03-21 19:05:00,30.6,20.9,28.58,North,360,2.0,3.0,67,0.00,CLR,,0.00,WeatherDisplay:10.37,2013-03-22 00:05:00,
2013-03-21 19:10:00,30.6,20.9,28.58,North,360,2.0,3.0,67,0.00,CLR,,0.00,WeatherDisplay:10.37,2013-03-22 00:10:00,
2013-03-21 19:15:00,30.6,20.9,28.58,North,360,2.0,3.0,67,0.00,CLR,,0.00,WeatherDisplay:10.37,2013-03-22 00:15:00,
2013-03-21 19:20:00,30.6,20.9,28.58,North,360,2.0,3.0,67,0.00,CLR,,0.00,WeatherDisplay:10.37,2013-03-22 00:20:00,
2013-03-21 19:25:00,30.6,20.9,28.58,North,360,2.0,3.0,67,0.00,CLR,,0.00,WeatherDisplay:10.37,2013-03-22 00:25:00,
2013-03-21 19:31:00,30.6,20.9,28.58,North,360,2.7,0.0,67,0.00,CLR,,0.00,WeatherDisplay:10.37,2013-03-22 00:31:00,
2013-03-21 19:36:00,33.8,33.5,28.39,NE,45,2.3,0.0,99,0.00,CLR,,0.00,WeatherDisplay:10.37,2013-03-22 00:36:00,
2013-03-21 19:41:00,33.8,33.5,28.39,NE,45,2.7,2.7,99,0.00,CLR,,0.00,WeatherDisplay:10.37,2013-03-22 00:41:00,
2013-03-21 19:46:00,33.8,33.5,28.39,ENE,68,3.5,3.5,99,0.01,RA,,0.01,WeatherDisplay:10.37,2013-03-22 00:46:00,
2013-03-21 19:51:00,33.8,33.5,28.39,NW,315,4.6,4.6,99,0.01,RA,,0.01,WeatherDisplay:10.37,2013-03-22 00:51:00,
2013-03-21 19:56:00,33.8,33.5,28.39,WSW,248,3.5,3.5,99,0.01,,,0.02,WeatherDisplay:10.37,2013-03-22 00:56:00,
2013-03-21 20:01:00,33.8,33.5,28.38,NW,315,4.6,4.6,99,0.02,RA,,0.02,WeatherDisplay:10.37,2013-03-22 01:01:00,
2013-03-21 20:06:00,33.8,33.5,28.38,North,360,4.6,4.6,99,0.02,RA,,0.03,WeatherDisplay:10.37,2013-03-22 01:06:00,
2013-03-21 20:11:00,33.8,33.5,28.38,SW,225,3.5,3.5,99,0.03,RA,,0.03,WeatherDisplay:10.37,2013-03-22 01:11:00,
2013-03-21 20:16:00,33.8,33.5,28.39,WNW,292,3.5,3.5,99,0.04,RA,,0.04,WeatherDisplay:10.37,2013-03-22 01:16:00,
2013-03-21 20:21:00,33.8,33.5,28.39,West,270,4.6,4.6,99,0.05,RA,,0.05,WeatherDisplay:10.37,2013-03-22 01:21:00,
2013-03-21 20:26:00,33.6,33.3,28.38,North,360,4.6,4.6,99,0.05,RA,,0.05,WeatherDisplay:10.37,2013-03-22 01:26:00,
2013-03-21 20:31:00,33.6,33.3,28.38,NW,315,4.6,4.6,99,0.06,RA,,0.06,WeatherDisplay:10.37,2013-03-22 01:31:00,
2013-03-21 20:36:00,33.6,33.3,28.38,South,180,5.8,5.8,99,0.06,RA,,0.06,WeatherDisplay:10.37,2013-03-22 01:36:00,
2013-03-21 20:41:00,33.6,33.3,28.39,ENE,68,4.6,4.6,99,0.07,RA,,0.07,WeatherDisplay:10.37,2013-03-22 01:41:00,
2013-03-21 20:46:00,33.4,33.1,28.39,NW,315,8.1,8.1,99,0.06,RA,,0.07,WeatherDisplay:10.37,2013-03-22 01:46:00,
2013-03-21 20:52:00,33.4,33.1,28.38,NE,45,4.7,4.7,99,0.06,CLR,,0.07,WeatherDisplay:10.37,2013-03-22 01:52:00,
2013-03-21 20:57:00,33.4,33.1,28.38,North,360,4.7,4.7,99,0.06,RA,,0.08,WeatherDisplay:10.37,2013-03-22 01:57:00,
2013-03-21 21:03:00,33.4,33.1,28.38,NNW,338,3.5,3.5,99,0.06,RA,,0.08,WeatherDisplay:10.37,2013-03-22 02:03:00,
2013-03-21 21:08:00,33.4,33.1,28.38,WNW,292,9.2,9.2,99,0.05,,,0.08,WeatherDisplay:10.37,2013-03-22 02:08:00,
2013-03-21 21:13:00,33.4,33.1,28.38,NNW,338,5.8,5.8,99,0.04,CLR,,0.08,WeatherDisplay:10.37,2013-03-22 02:13:00,
2013-03-21 21:18:00,33.4,33.1,28.38,ESE,112,3.7,3.7,99,0.04,CLR,,0.08,WeatherDisplay:10.37,2013-03-22 02:18:00,
2013-03-21 21:23:00,33.4,33.1,28.38,NNW,338,5.8,5.8,99,0.03,CLR,,0.08,WeatherDisplay:10.37,2013-03-22 02:23:00,
2013-03-21 21:28:00,33.4,33.1,28.39,NNW,338,5.8,5.8,99,0.03,RA,,0.09,WeatherDisplay:10.37,2013-03-22 02:28:00,
2013-03-21 21:33:00,33.4,33.1,28.39,NNE,22,4.2,4.2,99,0.03,RA,,0.09,WeatherDisplay:10.37,2013-03-22 02:33:00,
2013-03-21 21:38:00,33.4,33.1,28.39,NNE,22,5.8,5.8,99,0.03,,,0.09,WeatherDisplay:10.37,2013-03-22 02:38:00,
2013-03-21 21:43:00,33.3,33.0,28.39,NNE,22,5.8,5.8,99,0.03,RA,,0.10,WeatherDisplay:10.37,2013-03-22 02:43:00,
2013-03-21 21:48:00,33.3,33.0,28.39,NNE,22,4.6,4.6,99,0.03,RA,,0.10,WeatherDisplay:10.37,2013-03-22 02:48:00,
2013-03-21 21:53:00,33.3,33.0,28.39,NNE,22,3.5,3.5,99,0.03,,,0.10,WeatherDisplay:10.37,2013-03-22 02:53:00,
2013-03-21 21:59:00,33.3,33.0,28.39,SE,135,5.8,5.8,99,0.03,RA,,0.11,WeatherDisplay:10.37,2013-03-22 02:59:00,
2013-03-21 22:04:00,33.3,33.0,28.40,SSW,202,2.3,2.3,99,0.04,RA,,0.12,WeatherDisplay:10.37,2013-03-22 03:04:00,
2013-03-21 22:09:00,33.3,33.0,28.40,WSW,248,4.6,4.6,99,0.04,RA,,0.12,WeatherDisplay:10.37,2013-03-22 03:09:00,
2013-03-21 22:14:00,33.3,33.0,28.40,North,360,5.8,5.8,99,0.04,,,0.12,WeatherDisplay:10.37,2013-03-22 03:14:00,
2013-03-21 22:19:00,33.3,33.0,28.40,NNE,22,5.3,5.3,99,0.05,RA,,0.13,WeatherDisplay:10.37,2013-03-22 03:19:00,
2013-03-21 22:24:00,33.3,33.0,28.40,WNW,292,5.8,5.8,99,0.05,RA,,0.13,WeatherDisplay:10.37,2013-03-22 03:24:00,
2013-03-21 22:29:00,33.3,33.0,28.39,North,360,5.8,5.8,99,0.04,CLR,,0.13,WeatherDisplay:10.37,2013-03-22 03:29:00,
2013-03-21 22:34:00,33.3,33.0,28.39,NNE,22,4.7,4.7,99,0.04,CLR,,0.13,WeatherDisplay:10.37,2013-03-22 03:34:00,
2013-03-21 22:39:00,33.4,33.1,28.40,WNW,292,5.8,5.8,99,0.04,CLR,,0.13,WeatherDisplay:10.37,2013-03-22 03:39:00,
2013-03-21 22:44:00,33.4,33.1,28.40,NNE,22,3.5,3.5,99,0.03,CLR,,0.13,WeatherDisplay:10.37,2013-03-22 03:44:00,
2013-03-21 22:49:00,33.4,33.1,28.40,West,270,4.6,4.6,99,0.03,CLR,,0.13,WeatherDisplay:10.37,2013-03-22 03:49:00,
2013-03-21 22:54:00,33.3,33.0,28.40,ENE,68,4.6,4.6,99,0.03,CLR,,0.13,WeatherDisplay:10.37,2013-03-22 03:54:00,
2013-03-21 22:59:00,33.3,33.0,28.40,North,360,4.6,4.6,99,0.02,CLR,,0.13,WeatherDisplay:10.37,2013-03-22 03:59:00,
2013-03-21 23:00:00,33.3,33.0,28.40,NE,45,4.6,4.6,99,0.02,CLR,,0.13,WeatherDisplay:10.37,2013-03-22 04:00:00,
2013-03-21 23:02:00,33.3,33.0,28.41,ENE,68,4.6,4.6,99,0.02,CLR,,0.13,WeatherDisplay:10.37,2013-03-22 04:02:00,
2013-03-21 23:07:00,33.3,33.0,28.41,East,90,4.6,4.6,99,0.01,CLR,,0.13,WeatherDisplay:10.37,2013-03-22 04:07:00,
2013-03-21 23:12:00,33.1,32.9,28.41,North,360,3.5,3.5,99,0.01,CLR,,0.13,WeatherDisplay:10.37,2013-03-22 04:12:00,
2013-03-21 23:17:00,33.1,32.9,28.41,North,360,2.3,2.3,99,0.00,CLR,,0.13,WeatherDisplay:10.37,2013-03-22 04:17:00,
2013-03-21 23:22:00,33.1,32.9,28.41,NW,315,3.5,3.5,99,0.00,CLR,,0.13,WeatherDisplay:10.37,2013-03-22 04:22:00,
2013-03-21 23:27:00,33.1,32.9,28.41,NE,45,5.8,5.8,99,0.00,CLR,,0.13,WeatherDisplay:10.37,2013-03-22 04:27:00,
2013-03-21 23:32:00,33.1,32.9,28.41,NNW,338,4.7,4.7,99,0.01,RA,,0.14,WeatherDisplay:10.37,2013-03-22 04:32:00,
2013-03-21 23:37:00,33.1,32.9,28.40,South,180,5.8,5.8,99,0.01,RA,,0.14,WeatherDisplay:10.37,2013-03-22 04:37:00,
2013-03-21 23:42:00,33.1,32.9,28.40,NNE,22,3.5,3.5,99,0.01,CLR,,0.14,WeatherDisplay:10.37,2013-03-22 04:42:00,
2013-03-21 23:47:00,32.9,32.7,28.40,NW,315,4.7,4.7,99,0.02,RA,,0.15,WeatherDisplay:10.37,2013-03-22 04:47:00,
2013-03-21 23:52:00,32.7,32.5,28.41,NNE,22,4.6,4.6,99,0.02,RA,,0.15,WeatherDisplay:10.37,2013-03-22 04:52:00,
2013-03-21 23:57:00,32.7,32.5,28.41,North,360,3.7,3.7,99,0.02,,,0.15,WeatherDisplay:10.37,2013-03-22 04:57:00,